Junction, TX

10:48 PM CDT on July 23, 2017 (GMT -0500)
Kimble County

Weather History for KJCT - March, 2013

Change the Weather History Date:

Friday, March 22, 2013

  Actual Average Record
Temperature  
Mean Temperature 68 °F -  
Max Temperature 84 °F 68 °F 88 °F (2011)
Min Temperature 52 °F 44 °F 28 °F (2002)
Cooling Degree Days 3    
Growing Degree Days 18 (Base 50)    
Moisture  
Dew Point 52 °F    
Average Humidity 61    
Maximum Humidity 97    
Minimum Humidity 22    
Precipitation  
Precipitation 0.00 in - - ()
Sea Level Pressure  
Sea Level Pressure 29.62 in    
Wind  
Wind Speed 5 mph (NNE)    
Max Wind Speed 18 mph    
Max Gust Speed 22 mph    
Visibility 8 miles    
Events      
Averages and records for this station are not official NWS values.
T = Trace of Precipitation, MM = Missing Value Source: NWS Daily Summary

Daily Weather History Graph

Daily Weather History Graph

Search for Another Location

Airport or City:

Trip Planner

Search our weather history database for the weather conditions in past years. The results will help you decide how hot, cold, wet, or windy it might be!

Date:

Astronomy

Mar. 22, 2013 Rise Set
Actual Time 7:40 AM CDT 7:51 PM CDT
Civil Twilight 7:16 AM CDT 8:15 PM CDT
Nautical Twilight 6:48 AM CDT 8:44 PM CDT
Astronomical Twilight 6:19 AM CDT 9:12 PM CDT
Moon 3:37 PM CDT (3/22) 4:24 AM CDT (3/22)
Length of Visible Light 12h 59m
Length of Day
12h 11m
Waxing Gibbous, 77% of the Moon is Illuminated
Mar 22
Waxing Gibbous
Mar 27
Full
Apr 2
Last Quarter
Apr 10
New
Apr 18
First Quarter

Hourly Weather History & Observations

Time (CDT) Temp. Heat Index Dew Point Humidity Pressure Visibility Wind Dir Wind Speed Gust Speed Precip Events Conditions
12:51 AM 64.0 °F - 55.9 °F 75% 29.58 in 10.0 mi SW 4.6 mph - N/A   Clear
1:51 AM 64.0 °F - 57.0 °F 78% 29.57 in 9.0 mi WSW 5.8 mph - N/A   Clear
2:51 AM 62.1 °F - 55.9 °F 80% 29.57 in 9.0 mi Calm Calm - N/A   Clear
3:51 AM 61.0 °F - 55.9 °F 83% 29.56 in 8.0 mi Calm Calm - N/A   Clear
4:51 AM 60.1 °F - 55.9 °F 86% 29.55 in 8.0 mi West 3.5 mph - N/A   Clear
5:51 AM 57.0 °F - 55.0 °F 93% 29.56 in 7.0 mi Calm Calm - N/A   Clear
6:51 AM 55.9 °F - 54.0 °F 93% 29.59 in 6.0 mi Calm Calm - N/A   Clear
7:51 AM 52.0 °F - 51.1 °F 97% 29.62 in 4.0 mi Calm Calm - N/A   Partly Cloudy
8:04 AM 53.6 °F - 51.8 °F 94% 29.70 in 4.0 mi West 4.6 mph - N/A   Mostly Cloudy
8:35 AM 57.2 °F - 53.6 °F 88% 29.71 in 6.0 mi WNW 4.6 mph - N/A   Mostly Cloudy
8:51 AM 55.9 °F - 53.1 °F 90% 29.64 in 6.0 mi NW 4.6 mph - N/A   Mostly Cloudy
9:09 AM 57.2 °F - 53.6 °F 88% 29.72 in 5.0 mi WSW 3.5 mph - N/A   Mostly Cloudy
9:51 AM 64.0 °F - 57.0 °F 78% 29.64 in 5.0 mi Calm Calm - N/A   Haze
10:51 AM 73.0 °F - 59.0 °F 61% 29.65 in 8.0 mi NNW 4.6 mph - N/A   Clear
11:51 AM 77.0 °F - 57.0 °F 50% 29.64 in 9.0 mi West 3.5 mph - N/A   Clear
12:51 PM 82.0 °F 81.2 °F 53.1 °F 37% 29.63 in 10.0 mi South 5.8 mph - N/A   Clear
1:16 PM 78.8 °F - 53.6 °F 42% 29.72 in 10.0 mi NE 13.8 mph 21.9 mph N/A   Clear
1:51 PM 78.1 °F - 52.0 °F 40% 29.62 in 10.0 mi ENE 13.8 mph 21.9 mph N/A   Clear
2:51 PM 80.1 °F - 51.1 °F 36% 29.60 in 9.0 mi NE 10.4 mph - N/A   Clear
3:51 PM 82.0 °F - 48.9 °F 31% 29.57 in 10.0 mi NE 8.1 mph - N/A   Clear
4:51 PM 82.9 °F - 46.9 °F 28% 29.57 in 10.0 mi NE 9.2 mph 18.4 mph N/A   Clear
5:51 PM 84.0 °F - 42.1 °F 23% 29.57 in 10.0 mi NNE 9.2 mph 18.4 mph N/A   Clear
6:51 PM 78.1 °F - 46.0 °F 32% 29.59 in 10.0 mi ENE 18.4 mph - N/A   Clear
7:51 PM 73.9 °F - 43.0 °F 33% 29.63 in 10.0 mi NE 10.4 mph - N/A   Clear
8:51 PM 70.0 °F - 44.1 °F 39% 29.65 in 10.0 mi NE 12.7 mph - N/A   Clear
9:51 PM 64.0 °F - 45.0 °F 50% 29.66 in 10.0 mi ENE 11.5 mph - N/A   Clear
10:51 PM 61.0 °F - 44.1 °F 54% 29.65 in 10.0 mi East 12.7 mph - N/A   Clear
11:51 PM 59.0 °F - 44.1 °F 58% 29.65 in 10.0 mi ENE 10.4 mph - N/A   Clear